{"data":{"norad_id":51112,"intl_designator":"2022-005J","name":"STARLINK-3374","alt_names":[],"object_type":"PAYLOAD","status":"ACTIVE","operator":null,"country":"US","launch_date":"2022-01-19","launch_site_code":"AFETR","launch_vehicle":null,"mission":null,"orbit_class":"UNKNOWN","rcs_meters":null,"size_class":null,"mass_kg":null,"dimensions":null,"purposes":["comms"],"wikipedia_slug":null,"has_3d_model":false,"image_url":null,"decayed_at":null,"tle_current":{"epoch":"2026-09-20T03:29:01.997664Z","epoch_age_seconds":78893,"freshness":"FRESH","line1":"1 51112U 22005J   26263.14516201  .00000626  00000+0  29683-4 0  9993","line2":"2 51112  53.1598 127.4425 0001250  92.7629 267.3516 15.34387100258356","mean_motion":15.343871,"eccentricity":0.000125,"inclination_deg":53.1598,"raan_deg":127.4425,"arg_perigee_deg":92.7629,"mean_anomaly_deg":267.3516,"bstar":2.9683e-5,"rev_number":25835,"period_min":93.84854708437,"perigee_km":461.88647217153,"apogee_km":463.59669181703,"semimajor_km":6840.8785819943,"source":"CELESTRAK","updated_at":"2026-09-20T09:00:39.585358Z"}}}